Hattiesburg, MS

7:02 PM CDT on July 21, 2017 (GMT -0500)
Chain Municipal

Weather History for KHBG - October, 2013

Change the Weather History Date:

Wednesday, October 2, 2013

  Actual Average Record
Temperature  
Mean Temperature 77 °F 72 °F  
Max Temperature 84 °F 83 °F 95 °F (2006)
Min Temperature 70 °F 60 °F 41 °F (1984)
Degree Days  
Heating Degree Days 0 1  
Month to date heating degree days 0 2  
Since 1 July heating degree days 0 4  
Cooling Degree Days 12 7  
Month to date cooling degree days 24 15  
Year to date cooling degree days 2233 2242  
Growing Degree Days 28 (Base 50)    
Moisture  
Dew Point 71 °F    
Average Humidity 79    
Maximum Humidity 93    
Minimum Humidity 65    
Precipitation  
Precipitation T in 0.14 in 1.90 in (1988)
Month to date precipitation 0.04 0.28  
Year to date precipitation 57.25 46.52  
Sea Level Pressure  
Sea Level Pressure 30.04 in    
Wind  
Wind Speed 3 mph (ESE)    
Max Wind Speed 10 mph    
Max Gust Speed -    
Visibility 9 miles    
Events Rain    
T = Trace of Precipitation, MM = Missing Value Source: NWS Daily Summary

Daily Weather History Graph

Daily Weather History Graph

Search for Another Location

Airport or City:

Trip Planner

Search our weather history database for the weather conditions in past years. The results will help you decide how hot, cold, wet, or windy it might be!

Date:

Astronomy

Oct. 02, 2013 Rise Set
Actual Time 6:51 AM CDT 6:40 PM CDT
Civil Twilight 6:27 AM CDT 7:04 PM CDT
Nautical Twilight 5:59 AM CDT 7:32 PM CDT
Astronomical Twilight 5:31 AM CDT 8:00 PM CDT
Moon 4:31 AM CDT (10/2) 5:10 PM CDT (10/2)
Length of Visible Light 12h 37m
Length of Day
11h 48m
Waning Crescent, 6% of the Moon is Illuminated
Oct 2
Waning Crescent
Oct 4
New
Oct 11
First Quarter
Oct 18
Full
Oct 26
Last Quarter

Hourly Weather History & Observations

Time (CDT) Temp. Heat Index Dew Point Humidity Pressure Visibility Wind Dir Wind Speed Gust Speed Precip Events Conditions
12:53 AM 71.1 °F - 70.0 °F 96% 30.06 in 9.0 mi South 3.5 mph - N/A   Partly Cloudy
1:53 AM 72.0 °F - 70.0 °F 93% 30.05 in 10.0 mi Calm Calm - N/A   Scattered Clouds
2:53 AM 72.0 °F - 69.1 °F 91% 30.04 in 10.0 mi Calm Calm - N/A   Partly Cloudy
3:53 AM 71.1 °F - 69.1 °F 93% 30.03 in 10.0 mi Calm Calm - N/A   Mostly Cloudy
4:53 AM 71.1 °F - 69.1 °F 93% 30.03 in 7.0 mi Calm Calm - N/A   Scattered Clouds
5:53 AM 71.1 °F - 69.1 °F 93% 30.04 in 8.0 mi Calm Calm - N/A   Mostly Cloudy
6:53 AM 71.1 °F - 69.1 °F 93% 30.05 in 9.0 mi Calm Calm - N/A   Clear
7:53 AM 73.0 °F - 70.0 °F 90% 30.07 in 10.0 mi Calm Calm - N/A   Partly Cloudy
8:53 AM 73.9 °F - 70.0 °F 87% 30.08 in 10.0 mi Calm Calm - N/A   Partly Cloudy
9:53 AM 77.0 °F - 71.1 °F 82% 30.08 in 10.0 mi Variable 6.9 mph - N/A   Clear
10:53 AM 81.0 °F 85.2 °F 72.0 °F 74% 30.08 in 10.0 mi ESE 5.8 mph - N/A   Clear
11:53 AM 82.9 °F 88.0 °F 72.0 °F 69% 30.07 in 10.0 mi Variable 6.9 mph - N/A   Partly Cloudy
12:53 PM 82.9 °F 87.5 °F 71.1 °F 67% 30.06 in 10.0 mi ESE 9.2 mph - N/A   Partly Cloudy
1:53 PM 84.0 °F 89.0 °F 71.1 °F 65% 30.02 in 10.0 mi ENE 9.2 mph - N/A   Partly Cloudy
2:53 PM 82.9 °F 87.5 °F 71.1 °F 67% 30.00 in 10.0 mi ESE 6.9 mph - N/A   Clear
3:53 PM 84.0 °F 89.6 °F 72.0 °F 67% 29.99 in 10.0 mi East 4.6 mph - N/A   Partly Cloudy
4:53 PM 82.9 °F 87.5 °F 71.1 °F 67% 30.00 in 10.0 mi East 8.1 mph - N/A   Partly Cloudy
5:53 PM 81.0 °F 85.2 °F 72.0 °F 74% 30.01 in 10.0 mi ESE 5.8 mph - N/A   Clear
6:53 PM 78.1 °F - 73.0 °F 84% 30.01 in 10.0 mi SE 3.5 mph - 0.00 in Rain Light Rain
7:53 PM 77.0 °F - 72.0 °F 84% 30.02 in 10.0 mi Calm Calm - 0.00 in   Clear
8:53 PM 75.0 °F - 72.0 °F 90% 30.04 in 10.0 mi East 3.5 mph - N/A   Clear
9:53 PM 75.0 °F - 71.1 °F 87% 30.05 in 10.0 mi East 3.5 mph - N/A   Clear
10:53 PM 73.0 °F - 71.1 °F 93% 30.05 in 7.0 mi Calm Calm - N/A   Clear
11:53 PM 73.0 °F - 71.1 °F 93% 30.04 in 6.0 mi Calm Calm - N/A   Clear